﻿_id,日時,平均風速(m/s),平均風向,最大瞬間風速(m/s),最大風速時風向,気温(℃),湿度(%),10分間移動積算雨量(mm),1時間移動積算雨量(mm),日雨量(mm),累計雨量(mm)
1,2022-01-10T00:00:00,0.3,南東,1,南東,5.5,90.8,0,0,0,0
2,2022-01-10T00:01:00,0.3,南,1,南東,5.5,91,0,0,0,0
3,2022-01-10T00:02:00,0.3,南,1,南東,5.5,91,0,0,0,0
4,2022-01-10T00:03:00,0.3,南南東,1.3,東南東,5.5,91.1,0,0,0,0
5,2022-01-10T00:04:00,0.4,南南東,1.3,東南東,5.5,91.2,0,0,0,0
6,2022-01-10T00:05:00,0.3,南南東,1.3,東南東,5.5,91.3,0,0,0,0
7,2022-01-10T00:06:00,0.3,南南東,1.3,東南東,5.4,91.4,0,0,0,0
8,2022-01-10T00:07:00,0.3,南,1.3,東南東,5.4,91.5,0,0,0,0
9,2022-01-10T00:08:00,0.3,南,1.3,東南東,5.4,91.4,0,0,0,0
10,2022-01-10T00:09:00,0.3,南南西,1.3,東南東,5.4,91.7,0,0,0,0
11,2022-01-10T00:10:00,0.2,静穏,1.3,東南東,5.4,91.9,0,0,0,0
12,2022-01-10T00:11:00,0.3,南東,1.3,東南東,5.4,91.8,0,0,0,0
13,2022-01-10T00:12:00,0.4,南東,1.3,東南東,5.4,92.1,0,0,0,0
14,2022-01-10T00:13:00,0.4,南東,1.3,南東,5.4,92.4,0,0,0,0
15,2022-01-10T00:14:00,0.3,南南東,1.2,東北東,5.5,92.5,0,0,0,0
16,2022-01-10T00:15:00,0.4,南,1.6,南南西,5.4,92.4,0,0,0,0
17,2022-01-10T00:16:00,0.4,南南西,1.6,南南西,5.5,92.4,0,0,0,0
18,2022-01-10T00:17:00,0.4,南,1.6,南南西,5.4,92.2,0,0,0,0
19,2022-01-10T00:18:00,0.5,南,1.6,南南西,5.4,92.3,0,0,0,0
20,2022-01-10T00:19:00,0.5,南南東,1.6,南南西,5.4,92.4,0,0,0,0
21,2022-01-10T00:20:00,0.5,南,1.6,南南西,5.5,92.8,0,0,0,0
22,2022-01-10T00:21:00,0.5,南,1.6,南南西,5.6,92.9,0,0,0,0
23,2022-01-10T00:22:00,0.6,南南西,1.6,南南西,5.8,93.3,0,0,0,0
24,2022-01-10T00:23:00,0.6,南南西,1.6,南南西,5.7,93.1,0,0,0,0
25,2022-01-10T00:24:00,0.5,南,1.6,南南西,5.6,92.6,0,0,0,0
26,2022-01-10T00:25:00,0.5,南,1.6,南南西,5.6,92.3,0,0,0,0
27,2022-01-10T00:26:00,0.4,南南東,1.6,南南西,5.5,92.3,0,0,0,0
28,2022-01-10T00:27:00,0.5,南東,1.6,南南西,5.5,92.4,0,0,0,0
29,2022-01-10T00:28:00,0.5,南南東,1.6,南南西,5.6,92.5,0,0,0,0
30,2022-01-10T00:29:00,0.5,南南西,1.6,南南西,5.5,92.6,0,0,0,0
31,2022-01-10T00:30:00,0.5,西,1.6,南南西,5.5,92.5,0,0,0,0
32,2022-01-10T00:31:00,0.4,北北東,1.2,南西,5.5,92.5,0,0,0,0
33,2022-01-10T00:32:00,0.4,北北東,0.9,東南東,5.5,92.6,0,0,0,0
34,2022-01-10T00:33:00,0.5,北北東,1.8,北北西,5.7,93,0,0,0,0
35,2022-01-10T00:34:00,0.6,北,1.8,北北西,5.8,93,0,0,0,0
36,2022-01-10T00:35:00,0.7,北北西,1.8,北北西,5.8,93,0,0,0,0
37,2022-01-10T00:36:00,0.7,北北西,1.8,北北西,5.8,92.9,0,0,0,0
38,2022-01-10T00:37:00,0.7,北西,1.8,北北西,5.8,92.7,0,0,0,0
39,2022-01-10T00:38:00,0.8,北西,1.8,北北西,5.8,92.5,0,0,0,0
40,2022-01-10T00:39:00,0.9,北西,1.8,北北西,5.9,92.4,0,0,0,0
41,2022-01-10T00:40:00,0.9,北西,1.8,北北西,5.9,92.2,0,0,0,0
42,2022-01-10T00:41:00,1,北西,1.8,北北西,5.9,92.1,0,0,0,0
43,2022-01-10T00:42:00,1,北西,1.8,北北西,5.8,91.8,0,0,0,0
44,2022-01-10T00:43:00,1,北北西,2.1,北東,5.8,91.6,0,0,0,0
45,2022-01-10T00:44:00,1,北北西,2.1,北東,5.8,91.5,0,0,0,0
46,2022-01-10T00:45:00,1,北北西,2.1,北東,5.7,91.4,0,0,0,0
47,2022-01-10T00:46:00,1,北,2.1,北東,5.7,91.3,0,0,0,0
48,2022-01-10T00:47:00,1,北,2.1,北東,5.7,91.2,0,0,0,0
49,2022-01-10T00:48:00,1,北,2.4,北西,5.7,91.3,0,0,0,0
50,2022-01-10T00:49:00,1,北,2.4,北西,6.1,92,0,0,0,0
51,2022-01-10T00:50:00,1,北,2.5,北北西,6,91.7,0,0,0,0
52,2022-01-10T00:51:00,1,北,2.5,北北西,5.9,91,0,0,0,0
53,2022-01-10T00:52:00,1,北,2.5,北北西,5.9,90.7,0,0,0,0
54,2022-01-10T00:53:00,1,北,2.5,北北西,5.9,90.6,0,0,0,0
55,2022-01-10T00:54:00,1,北,2.5,北北西,6,90.6,0,0,0,0
56,2022-01-10T00:55:00,0.9,北,2.5,北北西,6,90.5,0,0,0,0
57,2022-01-10T00:56:00,0.8,北,2.5,北北西,6,90.2,0,0,0,0
58,2022-01-10T00:57:00,0.8,北,2.5,北北西,5.9,90,0,0,0,0
59,2022-01-10T00:58:00,0.7,北北西,2.5,北北西,5.9,89.8,0,0,0,0
60,2022-01-10T00:59:00,0.7,北,2.5,北北西,5.9,89.7,0,0,0,0
61,2022-01-10T01:00:00,0.6,北,2.4,北東,5.9,89.7,0,0,0,0
62,2022-01-10T01:01:00,0.5,北,1.6,北北西,5.9,89.8,0,0,0,0
63,2022-01-10T01:02:00,0.5,北北西,1.6,北北西,5.9,89.8,0,0,0,0
64,2022-01-10T01:03:00,0.5,北,1.2,北西,6,89.8,0,0,0,0
65,2022-01-10T01:04:00,0.5,北北西,1.2,北西,6,89.7,0,0,0,0
66,2022-01-10T01:05:00,0.5,北北西,1.2,北西,5.9,89.3,0,0,0,0
67,2022-01-10T01:06:00,0.5,北北西,1.2,北西,5.9,89.2,0,0,0,0
68,2022-01-10T01:07:00,0.5,北,1.2,北西,5.8,89.3,0,0,0,0
69,2022-01-10T01:08:00,0.5,北,1.2,北西,5.7,89.4,0,0,0,0
70,2022-01-10T01:09:00,0.5,北北東,1.2,北北西,5.7,89.6,0,0,0,0
71,2022-01-10T01:10:00,0.5,北北東,1.2,北北西,5.7,89.9,0,0,0,0
72,2022-01-10T01:11:00,0.5,北北東,1.2,北北西,5.7,90.2,0,0,0,0
73,2022-01-10T01:12:00,0.6,北東,1.2,北北西,5.6,90.4,0,0,0,0
74,2022-01-10T01:13:00,0.7,北東,1.5,東北東,5.6,90.6,0,0,0,0
75,2022-01-10T01:14:00,0.6,北東,1.5,東北東,5.6,91,0,0,0,0
76,2022-01-10T01:15:00,0.6,北東,1.5,東北東,5.6,91.2,0,0,0,0
77,2022-01-10T01:16:00,0.6,北東,1.5,東北東,5.6,91.4,0,0,0,0
78,2022-01-10T01:17:00,0.5,北東,1.5,東北東,5.7,91.6,0,0,0,0
79,2022-01-10T01:18:00,0.5,北東,1.5,東北東,5.8,92,0,0,0,0
80,2022-01-10T01:19:00,0.5,北東,1.5,東北東,5.7,92,0,0,0,0
81,2022-01-10T01:20:00,0.5,北東,1.5,東北東,5.7,92,0,0,0,0
82,2022-01-10T01:21:00,0.4,北東,1.5,東北東,5.8,92,0,0,0,0
83,2022-01-10T01:22:00,0.4,北北東,1.5,東北東,5.8,92.1,0,0,0,0
84,2022-01-10T01:23:00,0.3,北,1.2,東北東,5.9,92,0,0,0,0
85,2022-01-10T01:24:00,0.3,北北西,1.2,北北西,5.8,91.8,0,0,0,0
86,2022-01-10T01:25:00,0.4,北西,1.2,北北西,5.7,91.6,0,0,0,0
87,2022-01-10T01:26:00,0.5,北西,1.5,西北西,5.7,91.6,0,0,0,0
88,2022-01-10T01:27:00,0.6,西北西,1.5,西北西,5.8,91.6,0,0,0,0
89,2022-01-10T01:28:00,0.6,西北西,1.5,西北西,5.8,91.6,0,0,0,0
90,2022-01-10T01:29:00,0.7,北西,1.7,西南西,5.9,91.7,0,0,0,0
91,2022-01-10T01:30:00,0.7,北西,1.7,西南西,5.9,91.6,0,0,0,0
92,2022-01-10T01:31:00,0.8,北西,2.3,北西,5.9,91.4,0,0,0,0
93,2022-01-10T01:32:00,1,北西,2.3,北西,6,91.2,0,0,0,0
94,2022-01-10T01:33:00,1,北西,2.3,北西,6,91,0,0,0,0
95,2022-01-10T01:34:00,1,北西,2.3,北西,6.1,91,0,0,0,0
96,2022-01-10T01:35:00,1,北西,2.3,北西,6.1,90.6,0,0,0,0
97,2022-01-10T01:36:00,1,北西,2.3,北西,6.1,90.2,0,0,0,0
98,2022-01-10T01:37:00,1,北西,2.3,北西,6.2,89.8,0,0,0,0
99,2022-01-10T01:38:00,1,北西,2.9,南東,6.4,89.6,0,0,0,0
100,2022-01-10T01:39:00,1.1,北北西,2.9,南東,6.5,89,0,0,0,0
101,2022-01-10T01:40:00,1.1,北,2.9,南東,6.5,88,0,0,0,0
102,2022-01-10T01:41:00,1,北,2.9,南東,6.5,87,0,0,0,0
103,2022-01-10T01:42:00,0.9,北東,2.9,南東,6.5,86.1,0,0,0,0
104,2022-01-10T01:43:00,0.9,北東,2.9,南東,6.4,85.6,0,0,0,0
105,2022-01-10T01:44:00,0.9,北東,2.9,南東,6.4,85.1,0,0,0,0
106,2022-01-10T01:45:00,0.8,北東,2.9,南東,6.4,84.8,0,0,0,0
107,2022-01-10T01:46:00,0.8,東北東,2.9,南東,6.4,84.5,0,0,0,0
108,2022-01-10T01:47:00,1,東北東,5,北北東,6.4,84.4,0,0,0,0
109,2022-01-10T01:48:00,1.1,東北東,5,北北東,6.5,84.1,0,0,0,0
110,2022-01-10T01:49:00,1.1,北東,5,北北東,6.4,83.7,0,0,0,0
111,2022-01-10T01:50:00,1.3,北北東,5,北北東,6.4,83.5,0,0,0,0
112,2022-01-10T01:51:00,1.3,北北西,5,北北東,6.4,83.6,0,0,0,0
113,2022-01-10T01:52:00,1.2,北北西,5,北北東,6.4,83.6,0,0,0,0
114,2022-01-10T01:53:00,1.2,北北西,5,北北東,6.2,83.6,0,0,0,0
115,2022-01-10T01:54:00,1.2,北,5,北北東,6.3,83.9,0,0,0,0
116,2022-01-10T01:55:00,1.3,北,5,北北東,6.4,83.9,0,0,0,0
117,2022-01-10T01:56:00,1.3,北,5,北北東,6.4,83.5,0,0,0,0
118,2022-01-10T01:57:00,1,北北西,4,西北西,6.3,83.1,0,0,0,0
119,2022-01-10T01:58:00,0.9,北北西,3.2,西北西,6.3,83.3,0,0,0,0
120,2022-01-10T01:59:00,0.7,北北西,3,北西,6.4,83.6,0,0,0,0
121,2022-01-10T02:00:00,0.6,北北西,2.4,西北西,6.3,83.7,0,0,0,0
122,2022-01-10T02:01:00,0.6,北北西,2.1,北西,6.3,83.5,0,0,0,0
123,2022-01-10T02:02:00,0.7,北西,2.1,北西,6.4,83.6,0,0,0,0
124,2022-01-10T02:03:00,0.7,西北西,2.1,北西,6.3,83.5,0,0,0,0
125,2022-01-10T02:04:00,0.8,西,2.1,北西,6.2,83.8,0,0,0,0
126,2022-01-10T02:05:00,0.8,西,2.6,北北西,6.2,84,0,0,0,0
127,2022-01-10T02:06:00,0.9,西,2.7,北北西,6.1,84.4,0,0,0,0
128,2022-01-10T02:07:00,1,西北西,3,北西,6.1,84.8,0,0,0,0
129,2022-01-10T02:08:00,1.2,西北西,3,北西,6.2,85.3,0,0,0,0
130,2022-01-10T02:09:00,1.3,西北西,3,北西,6.2,85.5,0,0,0,0
131,2022-01-10T02:10:00,1.3,北西,3,北西,6.1,85.6,0,0,0,0
132,2022-01-10T02:11:00,1.2,北西,3,北西,6,85.6,0,0,0,0
133,2022-01-10T02:12:00,1.3,北北西,3,北西,6.2,86,0,0,0,0
134,2022-01-10T02:13:00,1.3,北北西,3,北西,6.2,86.2,0,0,0,0
135,2022-01-10T02:14:00,1.3,北,3,北西,6.3,86,0,0,0,0
136,2022-01-10T02:15:00,1.3,北,3,北西,6.2,85.9,0,0,0,0
137,2022-01-10T02:16:00,1.1,北東,3,北西,6.2,85.8,0,0,0,0
138,2022-01-10T02:17:00,1,北東,2.8,西北西,6.2,85.8,0,0,0,0
139,2022-01-10T02:18:00,0.9,北東,2.6,東北東,6.1,85.8,0,0,0,0
140,2022-01-10T02:19:00,1,北東,3.3,北西,6,86,0,0,0,0
141,2022-01-10T02:20:00,1.1,北北東,4.3,西北西,6.1,86.2,0,0,0,0
142,2022-01-10T02:21:00,1.2,北北西,4.3,西北西,6.3,86.1,0,0,0,0
143,2022-01-10T02:22:00,1.2,西北西,4.3,西北西,6.3,85.6,0,0,0,0
144,2022-01-10T02:23:00,1.4,西北西,4.3,西北西,6.3,85,0,0,0,0
145,2022-01-10T02:24:00,1.4,北西,4.3,西北西,6.3,84.7,0,0,0,0
146,2022-01-10T02:25:00,1.4,北西,4.3,西北西,6.3,84.4,0,0,0,0
147,2022-01-10T02:26:00,1.5,北北西,4.3,西北西,6.3,84.1,0,0,0,0
148,2022-01-10T02:27:00,1.5,北北西,4.3,西北西,6.2,84.2,0,0,0,0
149,2022-01-10T02:28:00,1.4,北北西,4.3,西北西,6.2,84.3,0,0,0,0
150,2022-01-10T02:29:00,1.4,北北西,4.3,西北西,6.2,84.6,0,0,0,0
151,2022-01-10T02:30:00,1.2,北,4.2,西,6.2,84.7,0,0,0,0
152,2022-01-10T02:31:00,1.2,北,4.2,西,6.3,84.7,0,0,0,0
153,2022-01-10T02:32:00,1,北北東,4.2,西,6.2,84.4,0,0,0,0
154,2022-01-10T02:33:00,0.9,北北東,2.7,西北西,6.2,84.5,0,0,0,0
155,2022-01-10T02:34:00,1,北,2.7,西北西,6.2,84.6,0,0,0,0
156,2022-01-10T02:35:00,1,北西,2.7,西北西,6.1,84.8,0,0,0,0
157,2022-01-10T02:36:00,1.2,北西,3.3,北西,6.1,85,0,0,0,0
158,2022-01-10T02:37:00,1.2,北西,3.3,北西,6.1,85.2,0,0,0,0
159,2022-01-10T02:38:00,1.2,北西,3.3,北西,6.1,85.5,0,0,0,0
160,2022-01-10T02:39:00,1.1,西北西,3.3,北西,6,85.7,0,0,0,0
161,2022-01-10T02:40:00,1.1,北西,3.3,北西,5.9,85.8,0,0,0,0
162,2022-01-10T02:41:00,1.2,北西,3.3,北西,5.9,86.3,0,0,0,0
163,2022-01-10T02:42:00,1.3,北西,3.3,北西,5.9,86.7,0,0,0,0
164,2022-01-10T02:43:00,1.3,北西,3.3,北西,6,86.9,0,0,0,0
165,2022-01-10T02:44:00,1.3,北北西,3.5,北西,6.1,87,0,0,0,0
166,2022-01-10T02:45:00,1.4,北北西,3.5,北西,6.1,87,0,0,0,0
167,2022-01-10T02:46:00,1.3,北北西,3.5,北西,6.1,86.7,0,0,0,0
168,2022-01-10T02:47:00,1.3,北北西,3.5,北西,6,86.5,0,0,0,0
169,2022-01-10T02:48:00,1.2,北西,3.5,北西,6,86.5,0,0,0,0
170,2022-01-10T02:49:00,1.2,北西,3.5,北西,6,86.5,0,0,0,0
171,2022-01-10T02:50:00,1.1,北西,3.5,北西,6.1,86.6,0,0,0,0
172,2022-01-10T02:51:00,1,北西,3.5,北西,6.1,86.5,0,0,0,0
173,2022-01-10T02:52:00,0.9,北西,3.5,北西,6.1,86.3,0,0,0,0
174,2022-01-10T02:53:00,0.8,北西,3.5,北西,6,86.3,0,0,0,0
175,2022-01-10T02:54:00,0.7,北西,3.3,北西,5.9,86.4,0,0,0,0
176,2022-01-10T02:55:00,0.6,西北西,3,西北西,5.9,86.6,0,0,0,0
177,2022-01-10T02:56:00,0.7,北西,3.6,北西,5.9,86.8,0,0,0,0
178,2022-01-10T02:57:00,0.8,北西,3.6,北西,5.9,87,0,0,0,0
179,2022-01-10T02:58:00,1,北西,3.6,北西,5.9,87.1,0,0,0,0
180,2022-01-10T02:59:00,1.2,北西,3.6,北西,6,87.2,0,0,0,0
181,2022-01-10T03:00:00,1.4,北西,3.6,北西,5.9,87.2,0,0,0,0
182,2022-01-10T03:01:00,1.6,北西,3.6,北西,5.9,87.2,0,0,0,0
183,2022-01-10T03:02:00,1.6,北西,3.6,北西,5.9,87.1,0,0,0,0
184,2022-01-10T03:03:00,1.6,北北西,3.6,北西,5.9,87.2,0,0,0,0
185,2022-01-10T03:04:00,1.6,北北西,3.6,北西,5.9,87.3,0,0,0,0
186,2022-01-10T03:05:00,1.5,北北西,3.6,北西,5.9,87.4,0,0,0,0
187,2022-01-10T03:06:00,1.4,北北西,3.1,西北西,6,87.4,0,0,0,0
188,2022-01-10T03:07:00,1.2,北,2.7,北,6,87.3,0,0,0,0
189,2022-01-10T03:08:00,1.1,北,2.5,北北西,5.9,87.2,0,0,0,0
190,2022-01-10T03:09:00,1,北,2.4,北北西,5.9,87.1,0,0,0,0
191,2022-01-10T03:10:00,0.8,北,2.4,北北西,5.9,87.1,0,0,0,0
192,2022-01-10T03:11:00,0.7,北,2,北北西,5.8,87.2,0,0,0,0
193,2022-01-10T03:12:00,0.6,北北東,1.6,北北西,5.8,87.4,0,0,0,0
194,2022-01-10T03:13:00,0.6,北,1.6,北北西,5.8,87.5,0,0,0,0
195,2022-01-10T03:14:00,0.5,北,1.4,西,5.8,87.7,0,0,0,0
196,2022-01-10T03:15:00,0.5,北,1.4,西,5.7,87.8,0,0,0,0
197,2022-01-10T03:16:00,0.6,北,1.4,西,5.7,88,0,0,0,0
198,2022-01-10T03:17:00,0.6,北,1.4,西,5.6,88.2,0,0,0,0
199,2022-01-10T03:18:00,0.5,北,1.4,西,5.6,88.5,0,0,0,0
200,2022-01-10T03:19:00,0.5,北,1.4,西,5.6,88.8,0,0,0,0
201,2022-01-10T03:20:00,0.5,北,1.4,西,5.6,89.1,0,0,0,0
202,2022-01-10T03:21:00,0.5,北北西,1.4,西,5.6,89.3,0,0,0,0
203,2022-01-10T03:22:00,0.5,北北西,1.4,西,5.6,89.6,0,0,0,0
204,2022-01-10T03:23:00,0.5,北,1.4,西,5.6,89.7,0,0,0,0
205,2022-01-10T03:24:00,0.4,北,1.4,北西,5.5,89.9,0,0,0,0
206,2022-01-10T03:25:00,0.4,北,1.6,北北西,5.5,90.1,0,0,0,0
207,2022-01-10T03:26:00,0.5,北北西,1.6,北北西,5.5,90.3,0,0,0,0
208,2022-01-10T03:27:00,0.5,北北西,1.6,北北西,5.5,90.5,0,0,0,0
209,2022-01-10T03:28:00,0.5,北北西,2.1,西北西,5.5,90.6,0,0,0,0
210,2022-01-10T03:29:00,0.6,北西,2.1,西北西,5.5,90.8,0,0,0,0
211,2022-01-10T03:30:00,0.6,北西,2.1,西北西,5.5,90.9,0,0,0,0
212,2022-01-10T03:31:00,0.7,北西,2.1,西北西,5.5,91,0,0,0,0
213,2022-01-10T03:32:00,0.7,北西,2.1,西北西,5.5,91.1,0,0,0,0
214,2022-01-10T03:33:00,0.8,北西,2.1,西北西,5.5,91.3,0,0,0,0
215,2022-01-10T03:34:00,0.9,北西,2.1,西北西,5.5,91.4,0,0,0,0
216,2022-01-10T03:35:00,0.9,北西,2.1,西北西,5.5,91.5,0,0,0,0
217,2022-01-10T03:36:00,0.9,北西,2.1,西北西,5.5,91.6,0,0,0,0
218,2022-01-10T03:37:00,0.9,北西,2.1,西北西,5.5,91.7,0,0,0,0
219,2022-01-10T03:38:00,0.9,北西,1.7,北西,5.5,91.8,0,0,0,0
220,2022-01-10T03:39:00,0.9,北北西,1.6,北北西,5.4,91.9,0,0,0,0
221,2022-01-10T03:40:00,0.8,北北西,1.6,北北西,5.4,91.9,0,0,0,0
222,2022-01-10T03:41:00,0.7,北北西,1.6,北北西,5.5,92.1,0,0,0,0
223,2022-01-10T03:42:00,0.7,北北西,1.6,北北西,5.4,92.2,0,0,0,0
224,2022-01-10T03:43:00,0.6,北北西,1.6,北北西,5.5,92.1,0,0,0,0
225,2022-01-10T03:44:00,0.6,北,1.6,北北西,5.4,92.2,0,0,0,0
226,2022-01-10T03:45:00,0.5,北,1.6,北北西,5.4,92.3,0,0,0,0
227,2022-01-10T03:46:00,0.5,北,1.7,北,5.4,92.3,0,0,0,0
228,2022-01-10T03:47:00,0.5,北北東,1.7,北,5.5,92.3,0,0,0,0
229,2022-01-10T03:48:00,0.4,北北東,1.7,北,5.5,92.3,0,0,0,0
230,2022-01-10T03:49:00,0.4,北北東,1.7,北,5.5,92.4,0,0,0,0
231,2022-01-10T03:50:00,0.4,北北東,1.7,北,5.5,92.4,0,0,0,0
232,2022-01-10T03:51:00,0.4,北北東,1.7,北,5.4,92.4,0,0,0,0
233,2022-01-10T03:52:00,0.5,北北東,1.7,北,5.4,92.3,0,0,0,0
234,2022-01-10T03:53:00,0.5,北北東,1.7,北,5.4,92.4,0,0,0,0
235,2022-01-10T03:54:00,0.5,北北東,1.7,北,5.4,92.5,0,0,0,0
236,2022-01-10T03:55:00,0.5,北北東,1.7,北,5.4,92.6,0,0,0,0
237,2022-01-10T03:56:00,0.4,北北東,1.4,北,5.4,92.7,0,0,0,0
238,2022-01-10T03:57:00,0.4,北,1.4,北,5.5,92.8,0,0,0,0
239,2022-01-10T03:58:00,0.4,北,1.4,北,5.4,92.8,0,0,0,0
240,2022-01-10T03:59:00,0.4,北北東,1.4,北,5.4,92.7,0,0,0,0
241,2022-01-10T04:00:00,0.4,北,1.4,北,5.5,92.8,0,0,0,0
242,2022-01-10T04:01:00,0.4,北,1.4,北,5.5,92.8,0,0,0,0
243,2022-01-10T04:02:00,0.3,北,1.4,北,5.4,92.7,0,0,0,0
244,2022-01-10T04:03:00,0.3,北北西,1.4,北,5.4,92.6,0,0,0,0
245,2022-01-10T04:04:00,0.3,北北西,1.2,北,5.4,92.7,0,0,0,0
246,2022-01-10T04:05:00,0.2,静穏,0.7,北東,5.4,92.6,0,0,0,0
247,2022-01-10T04:06:00,0.2,静穏,0.7,北東,5.5,92.7,0,0,0,0
248,2022-01-10T04:07:00,0.2,静穏,0.7,北東,5.5,92.6,0,0,0,0
249,2022-01-10T04:08:00,0.2,静穏,0.7,北東,5.5,92.6,0,0,0,0
250,2022-01-10T04:09:00,0.1,静穏,0.5,北西,5.5,92.5,0,0,0,0
